Other Public Products
Issued by NWS Grand Forks, ND

Home | Current Version | Previous Version | Graphics & Text | Print | Product List | Glossary Off
Versions: 1 2 3 4 5 6 7 8 9 10 11 12 13 14 15 16 17 18 19 20 21 22 23 24 25 26 27 28 29 30 31 32 33 34 35 36 37 38 39 40 41 42 43 44 45 46 47 48 49 50

000
FPUS83 KFGF 260731
OPUFGF
PRAIRIE TO PINES WEATHER ROUNDUP
NATIONAL WEATHER SERVICE EASTERN NORTH DAKOTA/GRAND FORKS ND
200 AM CDT FRI AUG 26 2016

 **SATELLITE DATA USED TO AUGMENT SKY COVER AT AUTOMATED STATIONS**
 *****  WEATHER ACROSS EASTERN NORTH DAKOTA  *****

CITY           SKY/WX    TMP DP  RH WIND       PRES   REMARKS
GRAND FORKS    FAIR      49  46  90 SW3       30.07R
GRAND FORKS AF FAIR      50  48  92 SW6       30.07R
GRAND CITY NWS NOT AVBL
BUXTON           N/A     53  53  99 SW5         N/A
DEVILS LAKE    FAIR      59  50  72 SW8       30.09S
FARGO          FAIR      57  51  80 SW9       30.11S
WAHPETON ARPT  FAIR      54  50  87 CALM      30.13F
$$

 *****  WEATHER ACROSS CENTRAL AND WESTERN NORTH DAKOTA  *****

CITY           SKY/WX    TMP DP  RH WIND       PRES   REMARKS
JAMESTOWN      FAIR      53  48  83 SW5       30.11F
BISMARCK       FAIR      48  44  86 SW3       30.14R
MINOT          FAIR      58  44  60 SW9       30.05F
MINOT AFB      FAIR      52  43  71 S7        30.04F
GARRISON         N/A     49  46  90 S5        30.09S
WILLISTON      FAIR      54  40  59 SW5       30.09S
DICKINSON      FAIR      48  39  71 CALM      30.13S
HETTINGER      FAIR      50  41  71 CALM      30.18F
$$

 *****  OTHER OBSERVATIONS NORTHEAST NORTH DAKOTA  *****

CITY           SKY/WX    TMP DP  RH WIND       PRES   REMARKS
WALHALLA       FAIR      48  48 100 CALM      30.06
LANGDON        FAIR      45  45 100 S3        30.08
CAVALIER       FAIR      48  46  93 CALM      30.06
GRAFTON        FAIR      48  46  93 SW7       30.08
CANDO          FAIR      46  46 100 SW3       30.09
FORT TOTTEN      N/A     52  45  78 S3        29.95S
ROLLA          FAIR      50  46  87 SW9       30.08
RUGBY          NOT AVBL
 ***** THE ABOVE OBSERVATIONS ARE NON NWS ARE NOT QUALITY
        CONTROLLED AND MAY MIS-REPORT RAIN FOR SNOW...
$$

 *****  OTHER OBSERVATIONS SOUTHEAST NORTH DAKOTA *****

CITY           SKY/WX    TMP DP  RH WIND       PRES   REMARKS
COOPERSTOWN    NOT AVBL
VALLEY CITY    FAIR      54  52  94 W7        30.13
OAKES            N/A    N/A N/A N/A MISG        N/A
GWINNER        FAIR      52  52 100 SW7       30.15
SHEYENNE NWR     N/A     51  50  95 W2        29.95S
BUFFALO          N/A     51  48  90 SW5         N/A
WYNDMERE         N/A     57  55  94 SW3         N/A
 ***** THE ABOVE OBSERVATIONS ARE NON NWS ARE NOT QUALITY
       CONTROLLED AND MAY MIS-REPORT RAIN FOR SNOW...
$$

  *****  WEATHER ACROSS NORTHERN MINNESOTA  *****

CITY           SKY/WX    TMP DP  RH WIND       PRES   REMARKS
FLAG ISLAND    FAIR      61  48  63 CALM      30.05R
WARROAD        FAIR      50  46  87 SW5       30.07S
ROSEAU         FAIR      48  45  87 CALM      30.07S
HALLOCK        FAIR      46  45  93 SE7       30.06S
THF RVR FALLS  FAIR      51  47  86 S7        30.09S
HALSTAD          N/A     50  48  93 SW6         N/A
FOSSTON        FAIR      48  46  93 S6        30.11S
BAUDETTE       CLOUDY    51  48  89 CALM      30.07R
WASKISH        MOCLDY    48  46  93 CALM      30.09S
CROOKSTON      FAIR      48  46  93 S5        30.09S
$$
  *****  WEATHER ACROSS CENTRAL AND WEST MINNESOTA  *****

CITY           SKY/WX    TMP DP  RH WIND       PRES   REMARKS
BEMIDJI        FAIR      51  49  92 SW5       30.12R
PARK RAPIDS    MOCLDY    50  48  93 CALM      30.13R
WADENA         CLOUDY    54  54 100 SW3       30.13F
DETROIT LAKES  FAIR      57  52  82 SW6       30.14S
MOORHEAD       FAIR      54  48  82 SW3       30.12F
FERGUS FALLS   FAIR      54  54 100 CALM      30.15F
ELBOW LAKE     FAIR      52  51  97 CALM      30.15F
MORRIS MN      FAIR      54  52  94 CALM      30.14F
STAPLES        MOCLDY    54  52  94 W3        30.14R
WHEATON        CLOUDY    57  55  94 CALM      30.16F
$$
  *****  WEATHER ELSEWHERE ACROSS MINNESOTA  *****

CITY           SKY/WX    TMP DP  RH WIND       PRES   REMARKS
DULUTH         MOCLDY    58  54  86 W7        30.09R
INTRNTL FALLS  FAIR      44  43  96 CALM      30.08R
ELY            FAIR      54  52  94 SW3       30.08R
CLOQUET        FAIR      54  52  94 W6        30.10S
BRAINERD       FAIR      50  50 100 CALM      30.14R
HIBBING        CLOUDY    56  52  86 W3        30.10R
ALEXANDRIA     FAIR      55  52  89 W6        30.16S
SAINT CLOUD    FAIR      56  54  93 NW6       30.14R
MINNEAPOLIS    FAIR      60  54  80 CALM      30.14R
$$

  *****  WEATHER ACROSS SOUTH DAKOTA  *****

CITY           SKY/WX    TMP DP  RH WIND       PRES   REMARKS
SIOUX FALLS    FAIR      54  52  93 CALM      30.18F
BROOKINGS      FAIR      52  51  97 CALM      30.18S
WATERTOWN      FAIR      52  49  89 CALM      30.17F
HURON          FAIR      52  48  86 W3        30.18S
SISSETON         N/A     58  53  84 W5        30.13F
ABERDEEN       FAIR      48  46  93 SW5       30.17S
MITCHELL       MOCLDY    53  51  93 CALM      30.18F
PIERRE         FAIR      48  45  89 CALM      30.17F
MOBRIDGE       FAIR      53  47  79 SE7       30.15S
RAPID CITY     MOCLDY    52  44  74 E3        30.21S
$$

  *****  SOME WEATHER IN NEARBY STATES *****

CITY           SKY/WX    TMP DP  RH WIND       PRES   REMARKS
GLASGOW MT     MOCLDY    58  45  62 E7        30.08F
GREAT FALLS MT CLOUDY    54  44  69 N5        30.20S
CHEYENNE WY    FAIR      53  45  74 S7        30.23F
SCOTTSBLUFF NE MOCLDY    56  47  71 E9        30.19S
OMAHA NE       FAIR      60  57  89 N5        30.15S
DES MOINES IA  FAIR      65  62  90 N3        30.13S
DAVENPORT IA   FAIR      63  61  93 N5        30.12S
CHICAGO IL     MOCLDY    68  63  84 NW7       30.10S
EAU CLAIRE WI  FAIR      55  53  93 CALM      30.11S
LA CROSSE WI   FAIR      62  59  90 CALM      30.12S
$$

  *****  SOME NATIONAL WEATHER *****

CITY           SKY/WX    TMP DP  RH WIND       PRES   REMARKS
LA GUARDIA NY  FAIR      79  71  76 S9        29.97S
RALEIGH NC     FAIR      74  69  85 SW6       30.09S
ATLANTA GA     FAIR      78  71  79 CALM      30.13F
NEW ORLEANS LA MOCLDY    82  78  88 NE6       30.03F HX  91
OKLAHOMA CITY  MOCLDY    72  67  84 N13       30.11R
ALBUQUERQUE NM CLOUDY    69  47  45 N17       30.21R
SALT LAKE CITY FAIR      69  32  25 S8        30.03R
LOS ANGELES CA CLOUDY    66  59  78 NW5       29.93R
BOISE ID       FAIR      62  36  37 SE3       29.97S
SEATTLE WA     FAIR      77  50  38 NE6       29.97F
$$

*** WEATHER ACROSS MANITOBA...SASKATCHEWAN AND ONTARIO ***
                ***ONTARIO***

CITY           SKY/WX    TMP DP  RH WIND       PRES   REMARKS
GERALDTON      MOCLDY    52  50  93 NW6       29.96S
THUNDER BAY    MOCLDY    57  54  88 W6        30.00R
SIOUX LOOKOUT  CLEAR     41  41 100 VRB2      30.02S
TORONTO        CLEAR     70  66  88 NW9       29.97R
BIG TROUT LK   CLEAR     57  52  82 W7        29.85F
PICKLE LAKE    NOT AVBL
DRYDEN         CLEAR     50  50 100 SW8       30.04R
KENORA         CLEAR     55  48  76 NW3       30.05R
$$
                *** MANITOBA***

CITY           SKY/WX    TMP DP  RH WIND       PRES   REMARKS
BRANDON        CLEAR     46  43  87 N3        30.04S
DAUPHIN        CLEAR     57  50  77 SW9       29.98F
ISLAND LAKE    PTCLDY    59  54  82 SW5       29.88F
PILOT MOUND      N/A     46  45  93 S6          N/A
THE PAS        CLOUDY    57  52  82 S3        29.91S
THOMPSON       MOCLDY    55  50  82 N6        29.84F
WINNIPEG       CLEAR     52  48  87 S5        30.04S
LYNN LAKE      CLOUDY    54  48  82 MISG      29.93S
CHURCHILL      CLOUDY    50  46  87 N7        29.85F
GILLAM         CLOUDY    54  43  66 NE7       29.82R
$$
                ***SASKATCHEWAN***

CITY           SKY/WX    TMP DP  RH WIND       PRES   REMARKS
ESTEVAN        MOCLDY    57  48  72 W6        30.05
KINDERSLEY     LGT RAIN  55  54  94 NW6       30.03F
LLOYDMINSTER   MOCLDY    52  50  93 W6        30.05F
PRINCE ALBERT  MOCLDY    55  54  94 VRB2      29.94
REGINA         MOCLDY    52  50  93 SW7       30.03F
YORKTON        CLEAR     55  50  82 S8        29.99F   C1F1C2F2C3F3C4F4C5F5C6F6C7F7C8F8C9F9CaFaCbFbCcFcCdFdCe!



USA.gov is the U.S. government's official web portal to all federal, state and local government web resources and services.